DW6665 Weather Reports


time (UTC)temp
C
wind
direction
speed
KPH
gust
KPH
rain 1hr
cm
rain 24hr
cm
rain mn
cm
humidity
%
barometer
mb
20260505153325 12 194 4.8 9.7 0.00 0.00 0.00 85 1015.7
20260505150333 12 267 3.2 9.7 0.00 0.00 0.00 86 1015.5
20260505140332 12 231 4.8 14.5 0.00 0.00 0.00 87 1014.8
20260505123334 12 234 4.8 11.3 0.00 0.00 0.00 87 1014.1
20260505120335 12 243 6.4 12.9 0.00 0.00 0.00 88 1013.8
20260505113339 12 209 6.4 19.3 0.00 0.00 0.00 88 1013.7
20260505110333 12 207 6.4 17.7 0.00 0.00 0.00 88 1013.6
20260505100330 11 221 6.4 17.7 0.00 0.00 0.00 89 1013.1
20260505093335 11 140 6.4 12.9 0.00 0.00 0.00 90 1012.9
20260505090348 11 240 9.7 17.7 0.00 0.00 0.00 90 1012.7
20260505083331 11 206 8.0 17.7 0.00 0.00 0.00 89 1012.5
20260505080335 12 214 6.4 14.5 0.00 0.00 0.00 88 1012.4
20260505073345 12 214 6.4 20.9 0.00 0.00 0.00 88 1012.1
20260505070330 12 194 9.7 17.7 0.00 0.00 0.00 87 1011.8
20260505063331 12 297 9.7 17.7 0.00 0.00 0.00 85 1011.6
20260505060333 13 183 8.0 17.7 0.00 0.00 0.00 84 1011.2
20260505053337 13 250 8.0 16.1 0.00 0.00 0.00 82 1010.8
20260505050324 15 213 4.8 17.7 0.00 0.00 0.00 79 1010.6
20260505040324 17 234 9.7 17.7 0.00 0.00 0.00 72 1009.7
20260505033336 18 226 11.3 17.7 0.00 0.00 0.00 67 1009.3
20260505030348 20 228 8.0 17.7 0.00 0.00 0.00 61 1009.0
20260505023332 22 235 8.0 14.5 0.00 0.00 0.00 54 1008.7
20260505020335 23 270 8.0 17.7 0.00 0.00 0.00 51 1008.8
20260505013352 23 243 9.7 19.3 0.00 0.00 0.00 51 1008.8
20260505010334 25 213 6.4 14.5 0.00 0.00 0.00 49 1008.9
20260505003347 25 175 6.4 14.5 0.00 0.00 0.00 47 1009.0
20260505000332 25 224 8.0 14.5 0.00 0.00 0.00 44 1009.2
20260504233333 25 272 6.4 14.5 0.00 0.00 0.00 44 1009.2
20260504230333 25 268 8.0 17.7 0.00 0.00 0.00 41 1009.2
20260504223329 24 248 4.8 12.9 0.00 0.00 0.00 47 1009.9
20260504220331 23 301 6.4 12.9 0.00 0.00 0.00 47 1010.0
20260504213359 23 255 6.4 19.3 0.00 0.00 0.00 49 1010.3
20260504210341 22 227 9.7 16.1 0.00 0.00 0.00 52 1010.4
20260504203331 22 282 9.7 20.9 0.00 0.00 0.00 55 1010.6
20260504200333 22 250 9.7 16.1 0.00 0.00 0.00 54 1010.5
20260504193404 21 266 8.0 16.1 0.00 0.00 0.00 55 1010.7
20260504190342 22 240 4.8 12.9 0.00 0.00 0.00 56 1010.9
20260504183355 21 277 4.8 11.3 0.00 0.00 0.00 55 1010.9
20260504180347 21 256 4.8 8.0 0.00 0.00 0.00 56 1011.1
20260504173350 20 251 6.4 9.7 0.00 0.00 0.00 53 1011.0
20260504170329 19 254 4.8 6.4 0.00 0.00 0.00 54 1010.9
20260504160412 18 284 1.6 6.4 0.00 0.00 0.00 58 1010.6